This is the latest recevied weather packets stored in our database for station/object AB4KY. If no packets are shown the sender has not sent any weather packets the latest 10 day(s).
| Time | Temp. | Humidity | Pressure | Rain* | Wind** | Luminosity | Snow |
|---|---|---|---|---|---|---|---|
| 1777335268 | 16.67° C | 99% | 1008.6 hPa | 1.27 mm | - | 0 W/m² | - |
| 1777334965 | 16.67° C | 99% | 1008.6 hPa | 6.1 mm | - | 0 W/m² | - |
| 1777334662 | 16.67° C | 99% | 1008.9 hPa | 15.49 mm | - | 0 W/m² | - |
| 1777334360 | 16.67° C | 99% | 1009.6 hPa | 25.91 mm | - | 0 W/m² | - |
| 1777334056 | 16.67° C | 99% | 1010.1 hPa | 38.35 mm | - | 0 W/m² | - |
| 1777333751 | 16.67° C | 99% | 1010.3 hPa | 22.1 mm | - | 0 W/m² | - |
| 1777333447 | 16.67° C | 99% | 1010.5 hPa | 1.27 mm | - | 0 W/m² | - |
| 1777333145 | 16.67° C | 99% | 1008.9 hPa | 0.51 mm | - | 0 W/m² | - |
| 1777332843 | 16.67° C | 99% | 1007.1 hPa | 0.51 mm | - | 0 W/m² | - |
| 1777332540 | 16.67° C | 99% | 1007.1 hPa | 1.27 mm | - | 0 W/m² | - |
| 1777332236 | 16.67° C | 99% | 1007.6 hPa | 0.51 mm | - | 0 W/m² | - |
| 1777331933 | 16.67° C | 99% | 1007.8 hPa | 4.83 mm | - | 0 W/m² | - |
| 1777331631 | 16.67° C | 99% | 1008.4 hPa | 6.6 mm | - | 0 W/m² | - |
| 1777331328 | 16.67° C | 99% | 1008.4 hPa | 7.87 mm | - | 0 W/m² | - |
| 1777331025 | 16.67° C | 99% | 1008.6 hPa | 12.7 mm | - | 0 W/m² | - |
| 1777330722 | 16.67° C | 99% | 1008.8 hPa | 11.43 mm | - | 0 W/m² | - |
| 1777330419 | 17.22° C | 99% | 1008.9 hPa | 5.33 mm | - | 0 W/m² | - |
| 1777330117 | 17.22° C | 99% | 1009.1 hPa | 1.27 mm | - | 0 W/m² | - |
| 1777329816 | 17.22° C | 99% | 1008.8 hPa | 3.05 mm | - | 0 W/m² | - |
| 1777329513 | 17.22° C | 99% | 1009.2 hPa | 23.88 mm | - | 0 W/m² | - |
| 1777329210 | 17.22° C | 98% | 1009.7 hPa | 37.85 mm | - | 0 W/m² | - |
| 1777328908 | 17.78° C | 97% | 1010 hPa | 11.94 mm | - | 0 W/m² | - |
| 1777328606 | 17.78° C | 95% | 1008.8 hPa | 1.78 mm | - | 0 W/m² | - |
| 1777328304 | 18.89° C | 92% | 1008.6 hPa | 1.78 mm | - | 0 W/m² | - |
| 1777328002 | 20.56° C | 85% | 1008.9 hPa | 0 mm | - | 0 W/m² | - |
* Rain latest hour (hover to see other rain measurements)
** Current wind speed in m/s (hover to see current wind gust speed)